This is the latest recevied weather packets stored in our database for station/object IW7DVM-13. If no packets are shown the sender has not sent any weather packets the latest 10 day(s).
| Time | Temp. | Humidity | Pressure | Rain* | Wind** | Luminosity | Snow |
|---|---|---|---|---|---|---|---|
| 1777635003 | 18.89° C | 39% | 1014.7 hPa | 0 mm | - | - | - |
| 1777634703 | 18.89° C | 40% | 1014.7 hPa | 0 mm | - | - | - |
| 1777634403 | 19.44° C | 39% | 1014.7 hPa | 0 mm | - | - | - |
| 1777634103 | 19.44° C | 41% | 1014.6 hPa | 0 mm | - | - | - |
| 1777633803 | 18.89° C | 40% | 1014.6 hPa | 0 mm | - | - | - |
| 1777633503 | 19.44° C | 39% | 1014.6 hPa | 0 mm | - | - | - |
| 1777633203 | 19.44° C | 39% | 1014.6 hPa | 0 mm | - | - | - |
| 1777632903 | 19.44° C | 39% | 1014.7 hPa | 0 mm | - | - | - |
| 1777632603 | 19.44° C | 40% | 1014.6 hPa | 0 mm | - | - | - |
| 1777632303 | 18.89° C | 42% | 1014.6 hPa | 0 mm | - | - | - |
| 1777632003 | 18.89° C | 41% | 1014.4 hPa | 0 mm | - | - | - |
| 1777631703 | 18.89° C | 41% | 1014.5 hPa | 0 mm | - | - | - |
| 1777631403 | 18.89° C | 41% | 1014.6 hPa | 0 mm | - | - | - |
| 1777631103 | 18.89° C | 41% | 1014.6 hPa | 0 mm | - | - | - |
| 1777630803 | 18.33° C | 42% | 1014.6 hPa | 0 mm | - | - | - |
| 1777630503 | 17.78° C | 43% | 1014.6 hPa | 0 mm | - | - | - |
| 1777630203 | 17.78° C | 43% | 1014.6 hPa | 0 mm | - | - | - |
| 1777629903 | 17.78° C | 43% | 1014.6 hPa | 0 mm | - | - | - |
| 1777629603 | 18.33° C | 45% | 1014.6 hPa | 0 mm | - | - | - |
| 1777629303 | 17.78° C | 46% | 1014.8 hPa | 0 mm | - | - | - |
| 1777629003 | 17.22° C | 46% | 1014.6 hPa | 0 mm | - | - | - |
| 1777628703 | 17.22° C | 46% | 1014.6 hPa | 0 mm | - | - | - |
| 1777628403 | 16.67° C | 47% | 1014.5 hPa | 0 mm | - | - | - |
| 1777628103 | 16.67° C | 48% | 1014.6 hPa | 0 mm | - | - | - |
| 1777627803 | 17.22° C | 49% | 1014.6 hPa | 0 mm | - | - | - |
* Rain latest hour (hover to see other rain measurements)
** Current wind speed in m/s (hover to see current wind gust speed)